TIME,DELAY(SENSOR),PRES,OXYGEN,RAWTEMP,T(OPTODE),TCPHASE,FLUOR,BETA(BETA700),BETA(BETA412),BETA(BETA440),CDOM,C(CSC),ED(ED412.40),ED(ED444.00),ED(ED489.70),ED(ED554.30),LU(LU411.80),LU(LU443.40),LU(LU489.60),LU(LU554.10),COMP,TILTX,TILTY,CHECK
1374206620,5809,878.8599853515625000,46.6152610778808600,662.5709838867188000,4.5432929992675780,54.0549011230468750,53,100,88,79,79,15387,2147752283,2147421897,2148014125,2147877924,2147640118,2147056128,2148254272,2147202139,2449,4,13,26037
1374210216,5809,942.3800048828125000,49.8892707824707000,670.7069702148438000,4.2748408317565920,53.6931800842285160,53,99,83,79,80,15389,2147752694,2147421942,2148012086,2147875986,2147643008,2147048960,2148257755,2147200795,300,4,13,60913
1374213816,5807,958.3699951171875000,51.1543884277343750,672.1356811523438000,4.2276210784912110,53.5361595153808600,53,97,85,77,79,15390,2147752100,2147423524,2148013248,2147875474,2147642176,2147054720,2148257984,2147196827,3561,4,13,20867
1374217416,5810,974.6199951171875000,51.9707107543945300,675.0546264648438000,4.1310791969299320,53.4619789123535160,52,99,86,80,80,15389,2147754541,2147424192,2148008905,2147872886,2147643794,2147056256,2148259867,2147197878,262,4,13,45797
1374221016,5810,987.5800170898438000,52.2783584594726560,676.3953857421875000,4.0866999626159670,53.4420700073242200,52,98,86,78,81,15388,2147755190,2147424850,2148012105,2147874953,2147642505,2147048237,2148261796,2147195565,150,4,13,2629
1374224616,5808,993.1599731445312000,52.2563400268554700,677.3474731445312000,4.0551757812500000,53.4584388732910160,52,99,86,80,78,15387,2147756425,2147423387,2148013760,2147875730,2147641572,2147043254,2148260644,2147197522,3353,4,13,28396
1374228216,5804,997.5200195312500000,52.3454589843750000,676.9171142578125000,4.0694260597229000,53.4355812072753900,52,97,86,78,79,15345,2147752557,2147422473,2148013348,2147877833,2147642203,2147051474,2148262610,2147197110,470,4,13,1135
1374231816,5810,999.9400024414062000,51.1663894653320300,675.2224731445312000,4.1255249977111820,53.5765609741210940,52,97,85,79,80,15347,2147753627,2147423945,2148009334,2147874788,2147641764,2147054473,2148258486,2147200685,106,4,13,1709
1374235416,5808,992.4400024414062000,51.5103797912597660,676.5062866210938000,4.0830268859863280,53.5487785339355500,52,101,87,77,80,15342,2147753956,2147426066,2148011794,2147875410,2147642203,2147052754,2148262317,2147198144,390,4,13,26734
1374239016,5810,998.0100097656250000,51.8526000976562500,677.0642700195312000,4.0645518302917480,53.5094909667968750,53,99,88,77,79,15343,2147754477,2147425124,2148009243,2147878189,2147640128,2147052022,2148259840,2147200128,3420,4,13,28728
1374242616,5805,997.3900146484375000,51.6515388488769500,676.5983276367188000,4.0799851417541500,53.5293388366699200,53,96,84,78,80,15343,2147756315,2147425773,2148011757,2147879314,2147636525,2147053293,2148263222,2147198948,309,4,13,5468
1374246216,5810,1003.9899902343750000,51.3691787719726560,676.6727294921875000,4.0775179862976070,53.5652809143066400,52,98,83,80,79,15341,2147752521,2147427958,2148011145,2147875172,2147641947,2147053659,2148256256,2147197293,3523,4,13,46189
1374249816,5809,1010.1500244140625000,50.8237609863281250,675.3466796875000000,4.1214141845703125,53.6229782104492200,52,97,82,78,78,15342,2147754212,2147424045,2148008502,2147873097,2147639542,2147054381,2148259465,2147197001,446,4,13,44088
1374253416,5809,1002.9199829101562000,51.4978485107421900,675.6956787109375000,4.1098608970642090,53.5392189025878900,52,97,84,78,79,15343,2147755254,2147422308,2148007451,2147875803,2147642660,2147054198,2148259794,2147195986,426,4,13,15887
1374257016,5809,1003.2500000000000000,51.6068611145019500,677.5543823242188000,4.0483207702636720,53.5478286743164060,53,99,85,79,79,15345,2147753088,2147425289,2148012160,2147876397,2147644580,2147052178,2148258340,2147198308,11,4,13,2252
1374260616,5813,1002.1300048828125000,52.0124015808105500,677.8134765625000000,4.0397400856018070,53.4943389892578100,53,97,83,78,79,15342,2147755117,2147425929,2148010102,2147874093,2147641545,2147049773,2148262509,2147198454,74,4,13,11622
1374264216,5811,999.4000244140625000,51.6034698486328100,677.6359252929688000,4.0456237792968750,53.5495109558105500,52,99,87,79,80,15344,2147754093,2147423990,2148014034,2147876489,2147641179,2147050788,2148261376,2147198144,639,4,13,10987
1374267816,5809,1002.9099731445312000,52.3304290771484400,677.5402832031250000,4.0487880706787110,53.4514198303222660,52,100,85,79,80,15344,2147758006,2147427556,2148014034,2147873188,2147641133,2147053696,2148263844,2147199497,113,4,13,49690
1374271416,5809,995.9799804687500000,51.6847000122070300,677.6018066406250000,4.0467529296875000,53.5405807495117200,52,97,83,83,78,15342,2147756544,2147425252,2148013001,2147877302,2147641197,2147049755,2148253403,2147194614,140,4,13,59361
1374275016,5811,999.5499877929688000,51.0777816772460940,677.5745239257812000,4.0476589202880860,53.6208114624023440,52,100,89,78,78,15339,2147754102,2147425417,2148009682,2147874468,2147638747,2147048969,2148262464,2147201874,413,4,13,54100
1374278616,5808,1002.1300048828125000,50.3132095336914060,677.5595703125000000,4.0481491088867190,53.7210617065429700,52,99,89,78,80,15340,2147755474,2147424978,2148010980,2147875520,2147641654,2147049819,2148254912,2147197549,540,4,13,27777
1374282216,5811,1005.2999877929688000,51.9583892822265600,677.7819213867188000,4.0407872200012210,53.5028190612793000,52,98,86,77,79,15342,2147755574,2147427044,2148010532,2147874020,2147640594,2147049344,2148256036,2147199213,89,4,13,43579
1374285816,5809,1012.0100097656250000,52.2438201904296900,677.4702148437500000,4.0511112213134770,53.4593391418457000,52,98,85,79,80,15339,2147754614,2147424027,2148009801,2147871552,2147644105,2147049161,2148262016,2147201280,3414,4,13,40184
1374289416,5811,1005.1300048828125000,51.5913200378418000,677.3405761718750000,4.0554051399230960,53.5454597473144500,52,97,84,78,80,15318,2147753371,2147426395,2148010980,2147873828,2147637110,2147046884,2148262848,2147197037,559,4,13,37426
1374293016,5809,1007.6599731445312000,50.5974693298339840,676.3140869140625000,4.0893898010253910,53.6694297790527340,52,97,89,79,78,15316,2147754194,2147426514,2148008173,2147878016,2147644388,2147051538,2148262418,2147198098,60,4,13,19022
1374296616,5810,1006.8699951171875000,51.1409988403320300,675.5842285156250000,4.1135520935058590,53.5836715698242200,52,97,89,79,79,15313,2147755538,2147430034,2148014692,2147875446,2147641545,2147051986,2148258477,2147198336,3499,4,13,61486
1374300216,5810,1002.2399902343750000,50.5970001220703100,677.2791137695312000,4.0574398040771480,53.6767807006835940,51,97,85,79,79,15313,2147754925,2147427282,2148009819,2147874788,2147642816,2147051364,2148257389,2147199634,27,4,13,11339
1374303816,5807,1008.1400146484375000,51.2815589904785160,677.8153076171875000,4.0396800041198730,53.5921516418457000,51,99,87,77,79,15312,2147753206,2147425426,2148008950,2147874870,2147644361,2147051419,2148264155,2147197430,3489,4,13,34218
1374307416,5810,1007.7399902343750000,51.1813087463378900,677.6821289062500000,4.0440940856933590,53.6038093566894500,53,96,82,78,80,15315,2147752694,2147426194,2148011931,2147879323,2147640548,2147049444,2148260470,2147197924,3310,4,13,30076
1374311016,5811,1009.8300170898438000,51.0699691772460940,677.4064941406250000,4.0532212257385250,53.6189384460449200,53,97,87,79,79,15317,2147754057,2147427126,2148007497,2147877010,2147642048,2147048896,2148255817,2147198144,3379,3,13,53462
1374314616,5808,1016.2600097656250000,51.0340003967285160,676.2108154296875000,4.0928120613098145,53.6098594665527340,53,100,83,79,78,15316,2147756205,2147421257,2148012123,2147877440,2147642203,2147053851,2148259410,2147198281,3545,4,13,24640
1374318216,5810,1006.5900268554688000,50.5459594726562500,677.1301269531250000,4.0623741149902340,53.6846809387207000,52,98,87,78,80,15313,2147753865,2147425216,2148010742,2147874989,2147643648,2147050550,2148263378,2147197074,76,4,13,12027
1374321816,5808,1010.4699707031250000,52.1232490539550800,677.5206909179688000,4.0494379997253420,53.4770698547363300,53,96,86,78,79,15299,2147755584,2147428032,2148012470,2147875803,2147640850,2147052937,2148259428,2147197778,3132,4,13,18970
1374325416,5811,1009.2299804687500000,51.3273887634277340,677.1961059570312000,4.0601878166198730,53.5824317932128900,52,99,87,80,79,15299,2147755702,2147423862,2148012132,2147875264,2147641051,2147055542,2148260553,2147197522,131,4,13,65421
1374329016,5809,1012.7999877929688000,51.9763793945312500,677.4776000976562000,4.0508651733398440,53.4942893981933600,52,98,88,78,80,15296,2147751222,2147425371,2148013348,2147875785,2147642285,2147048210,2148251099,2147201682,2989,4,13,64142
1374332616,5810,1007.2399902343750000,51.5673789978027340,677.3862304687500000,4.0538940429687500,53.5522308349609400,52,98,86,78,79,15297,2147756050,2147426349,2148010697,2147873782,2147641819,2147048128,2148256484,2147197659,3323,4,13,56363
1374336216,5808,1013.3400268554688000,51.4375000000000000,676.8164062500000000,4.0727620124816895,53.5616188049316400,52,98,86,78,80,15297,2147752310,2147422107,2148011894,2147875794,2147643218,2147048877,2148255616,2147202633,3369,4,13,28193
1374339816,5811,1008.2299804687500000,51.3302307128906250,677.8001708984375000,4.0401821136474610,53.5879707336425800,52,96,85,78,80,15296,2147755858,2147425133,2148011318,2147877622,2147641865,2147049243,2148259785,2147199725,356,4,13,55006
1374343416,5810,998.7999877929688000,50.9841613769531250,678.4149780273438000,4.0198149681091310,53.6439590454101560,52,98,88,77,80,15297,2147757449,2147424493,2148013037,2147874925,2147641929,2147049161,2148259520,2147195200,2568,4,13,10218
1374347016,5809,998.9299926757812000,50.4910812377929700,678.7368164062500000,4.0091547966003420,53.7118110656738300,52,98,87,78,79,15291,2147755721,2147424000,2148013540,2147876224,2147641472,2147053686,2148259218,2147197504,3503,4,13,58378
1374350616,5809,992.6900024414062000,50.8173103332519500,679.1768798828125000,3.9945681095123290,53.6744689941406250,52,98,86,79,80,15294,2147752438,2147423122,2148011657,2147876909,2147639405,2147048448,2148256685,2147195904,2636,3,13,42285
1374351056,5810,1000.7600097656250000,50.9751586914062500,679.3659057617188000,3.9883060455322266,53.6589202880859400,52,122,85,78,80,15363,2147754166,2147423451,2148013120,2147874934,2147639085,2147057609,2148264109,2147201353,501,4,13,4993
